Location: G�ppingen
(48.7089°N, 9.6563°E)
Time: 23:58:08
(UTC+01:00)

LilacSat-2 - Visible Passes

Search period start: 19 March 2019 00:00
Search period end: 29 March 2019 00:00
Orbit: 513 x 536 km, 97.5° (Epoch: 19 March)

Date Brightness Start Highest point End Pass type
(mag) Time Alt. Az. Time Alt. Az. Time Alt. Az.
19 Mar ? 05:19:10 10° NE 05:21:29 15° E 05:23:48 10° SE visible
20 Mar ? 05:07:59 10° ENE 05:09:20 12° E 05:10:41 10° ESE visible
25 Mar ? 05:40:32 10° NE 05:43:44 26° E 05:46:55 10° SSE visible
26 Mar ? 05:28:49 10° NE 05:31:37 20° E 05:34:24 10° SE visible
27 Mar ? 05:17:16 10° NE 05:19:28 15° E 05:21:40 10° SE visible
28 Mar ? 05:06:14 10° ENE 05:07:19 11° E 05:08:23 10° ESE visible
